Starlink 3641

operational
NORAD ID: 51788 Int'l Des: 2022-017 Owner: SPXS Country: US Constellation: starlink
LEOCIRCULAR

Starlink 3641について

説明を読み込み中...

リアルタイム位置

3D地球を読み込み中...

次回通過

高度履歴

Altitude vs Time

uPlot chart will show altitude changes over time

軌道要素

1 51788U 22017W 25258.70565420 -.00000249 00000-0 24223-5 0 9996
2 51788 53.2178 54.6543 0001388 85.3431 274.7719 15.08841158197508
Epoch: Sep 15, 2025 • Age: 21 hours

現在のステータス

高度 539.6 km
速度 7.59 km/s
衛星直下点 11.85°N, 141.02°W
打ち上げ日 Feb 25, 2022
運用期間 3.5 years
タイプ internet

技術仕様

分類 Payload
質量 297.00 kg
乾燥質量 275.00 kg
総質量 297.00 kg
長さ 0.20 m
直径 2.80 m
スパン 9.00 m
形状 Box + pan
製造者 SPXS
バスタイプ Starlink
フェーズステータス In Orbit
所有者/国 SPXS/US

大規模コンステレーション

Loading constellations...